TimeEST,TemperatureF,Dew PointF,Humidity,Sea Level PressureIn,VisibilityMPH,Wind Direction,Wind SpeedMPH,Gust SpeedMPH,PrecipitationIn,Events,Conditions,WindDirDegrees,DateUTC
12:15 AM,51.8,42.8,71,30.09,10.0,Calm,Calm,-,N/A,,Clear,0,2013-02-05 05:15:00
12:35 AM,51.8,44.6,76,30.09,10.0,Calm,Calm,-,N/A,,Scattered Clouds,0,2013-02-05 05:35:00
12:55 AM,53.6,44.6,72,30.09,10.0,Calm,Calm,-,N/A,,Clear,0,2013-02-05 05:55:00
1:15 AM,53.6,44.6,72,30.09,10.0,Calm,Calm,-,N/A,,Clear,0,2013-02-05 06:15:00
1:35 AM,51.8,44.6,76,30.08,10.0,Calm,Calm,-,N/A,,Clear,0,2013-02-05 06:35:00
1:55 AM,51.8,46.4,82,30.08,10.0,Calm,Calm,-,N/A,,Clear,0,2013-02-05 06:55:00
2:15 AM,51.8,46.4,82,30.07,10.0,Calm,Calm,-,N/A,,Clear,0,2013-02-05 07:15:00
2:35 AM,53.6,46.4,77,30.07,10.0,Calm,Calm,-,N/A,,Clear,0,2013-02-05 07:35:00
2:55 AM,51.8,46.4,82,30.06,10.0,Calm,Calm,-,N/A,,Clear,0,2013-02-05 07:55:00
3:15 AM,53.6,48.2,82,30.06,10.0,Calm,Calm,-,N/A,,Clear,0,2013-02-05 08:15:00
3:35 AM,51.8,46.4,82,30.06,10.0,Calm,Calm,-,N/A,,Clear,0,2013-02-05 08:35:00
3:55 AM,51.8,44.6,76,30.06,10.0,Calm,Calm,-,N/A,,Clear,0,2013-02-05 08:55:00
4:15 AM,51.8,44.6,76,30.06,10.0,Calm,Calm,-,N/A,,Clear,0,2013-02-05 09:15:00
4:35 AM,51.8,44.6,76,30.05,10.0,WSW,3.5,-,N/A,,Clear,250,2013-02-05 09:35:00
4:55 AM,53.6,42.8,67,30.05,10.0,WSW,3.5,-,N/A,,Clear,240,2013-02-05 09:55:00
5:15 AM,53.6,42.8,67,30.06,10.0,WSW,3.5,-,N/A,,Clear,250,2013-02-05 10:15:00
6:47 AM,51.8,44.6,76,30.07,10.0,Calm,Calm,-,N/A,,Partly Cloudy,0,2013-02-05 11:47:00
7:47 AM,55.4,46.4,72,30.07,7.0,Calm,Calm,-,N/A,,Partly Cloudy,0,2013-02-05 12:47:00
8:47 AM,64.4,50.0,59,30.09,7.0,Calm,Calm,-,N/A,,Clear,0,2013-02-05 13:47:00
9:47 AM,69.8,48.2,46,30.11,10.0,Calm,Calm,-,N/A,,Clear,0,2013-02-05 14:47:00
10:47 AM,73.4,48.2,41,30.11,7.0,South,4.6,-,N/A,,Partly Cloudy,190,2013-02-05 15:47:00
11:47 AM,75.2,44.6,34,30.09,7.0,South,8.1,-,N/A,,Scattered Clouds,190,2013-02-05 16:47:00
12:17 PM,75.2,42.8,31,30.09,7.0,West,9.2,-,N/A,,Scattered Clouds,270,2013-02-05 17:17:00
12:47 PM,77.0,48.2,36,30.09,7.0,ENE,9.2,-,N/A,,Scattered Clouds,70,2013-02-05 17:47:00
1:47 PM,77.0,50.0,39,30.10,10.0,East,12.7,-,N/A,,Scattered Clouds,100,2013-02-05 18:47:00
2:47 PM,73.4,50.0,44,30.05,10.0,East,10.4,-,N/A,,Scattered Clouds,90,2013-02-05 19:47:00
3:47 PM,75.2,50.0,41,30.04,10.0,East,11.5,16.1,N/A,,Partly Cloudy,90,2013-02-05 20:47:00
4:47 PM,73.4,53.6,50,30.03,10.0,ESE,9.2,-,N/A,,Partly Cloudy,120,2013-02-05 21:47:00
6:47 PM,68.0,55.4,64,30.04,10.0,SE,5.8,-,N/A,,Clear,130,2013-02-05 23:47:00
7:15 PM,68.0,53.6,60,30.04,10.0,Calm,Calm,-,N/A,,Clear,0,2013-02-06 00:15:00
7:35 PM,68.0,53.6,60,30.04,10.0,SE,3.5,-,N/A,,Clear,140,2013-02-06 00:35:00
7:55 PM,66.2,55.4,68,30.05,10.0,Calm,Calm,-,N/A,,Clear,0,2013-02-06 00:55:00
8:15 PM,66.2,55.4,68,30.05,10.0,ESE,3.5,-,N/A,,Clear,110,2013-02-06 01:15:00
8:35 PM,64.4,57.2,77,30.06,10.0,Calm,Calm,-,N/A,,Clear,0,2013-02-06 01:35:00
8:55 PM,64.4,57.2,77,30.06,10.0,Calm,Calm,-,N/A,,Clear,0,2013-02-06 01:55:00
9:15 PM,64.4,57.2,77,30.06,10.0,Calm,Calm,-,N/A,,Clear,0,2013-02-06 02:15:00
9:35 PM,64.4,57.2,77,30.07,10.0,South,3.5,-,N/A,,Clear,170,2013-02-06 02:35:00
9:55 PM,66.2,59.0,78,30.07,10.0,SSE,3.5,-,N/A,,Clear,160,2013-02-06 02:55:00
10:15 PM,64.4,57.2,77,30.07,10.0,Calm,Calm,-,N/A,,Clear,0,2013-02-06 03:15:00
10:35 PM,64.4,59.0,83,30.08,10.0,Calm,Calm,-,N/A,,Scattered Clouds,0,2013-02-06 03:35:00
10:55 PM,62.6,57.2,82,30.08,10.0,Calm,Calm,-,N/A,,Clear,0,2013-02-06 03:55:00
11:15 PM,62.6,59.0,88,30.08,10.0,Calm,Calm,-,N/A,,Clear,0,2013-02-06 04:15:00
11:35 PM,62.6,57.2,82,30.08,10.0,Calm,Calm,-,N/A,,Clear,0,2013-02-06 04:35:00
11:55 PM,60.8,57.2,88,30.08,10.0,Calm,Calm,-,N/A,,Scattered Clouds,0,2013-02-06 04:55:00